time_start,precipitation
1-Jan-81,0.724
6-Jan-81,0.567
11-Jan-81,0.494
16-Jan-81,0.484
21-Jan-81,0.859
26-Jan-81,4.239
1-Feb-81,6.259
6-Feb-81,1.497
11-Feb-81,6.156
16-Feb-81,1.363
21-Feb-81,3.436
26-Feb-81,11.184
1-Mar-81,4.918
6-Mar-81,3.602
11-Mar-81,2.06
16-Mar-81,1.825
21-Mar-81,1.563
26-Mar-81,3.269
1-Apr-81,6.441
6-Apr-81,4.332
11-Apr-81,15.15
16-Apr-81,17.539
21-Apr-81,10.46
26-Apr-81,23.45
1-May-81,27.139
6-May-81,30.888
11-May-81,16.404
16-May-81,41.837
21-May-81,40.831
26-May-81,43.208
1-Jun-81,31.497
6-Jun-81,82.273
11-Jun-81,51.826
16-Jun-81,65.848
21-Jun-81,45.06
26-Jun-81,19.457
1-Jul-81,55.571
6-Jul-81,48.679
11-Jul-81,52.829
16-Jul-81,85.353
21-Jul-81,47.59
26-Jul-81,48.518
1-Aug-81,88.287
6-Aug-81,83.968
11-Aug-81,57.085
16-Aug-81,38.011
21-Aug-81,32.143
26-Aug-81,39.805
1-Sep-81,25.627
6-Sep-81,27.367
11-Sep-81,45.039
16-Sep-81,75.947
21-Sep-81,48.683
26-Sep-81,35.705
1-Oct-81,44.628
6-Oct-81,18.163
11-Oct-81,51.119
16-Oct-81,26.381
21-Oct-81,15.993
26-Oct-81,71.109
1-Nov-81,25.144
6-Nov-81,55.753
11-Nov-81,29.135
16-Nov-81,17.402
21-Nov-81,11.48
26-Nov-81,22.829
1-Dec-81,5.826
6-Dec-81,4.09
11-Dec-81,0.981
16-Dec-81,1.064
21-Dec-81,1.099
26-Dec-81,1.182
1-Jan-82,0.9
6-Jan-82,1.265
11-Jan-82,0.577
16-Jan-82,0.563
21-Jan-82,0.636
26-Jan-82,1.028
1-Feb-82,1.751
6-Feb-82,1.676
11-Feb-82,6.433
16-Feb-82,1.617
21-Feb-82,5.562
26-Feb-82,1.564
1-Mar-82,2.744
6-Mar-82,5.367
11-Mar-82,1.491
16-Mar-82,1.22
21-Mar-82,8.042
26-Mar-82,25.387
1-Apr-82,13.522
6-Apr-82,7.278
11-Apr-82,27.523
16-Apr-82,21.965
21-Apr-82,8.119
26-Apr-82,4.233
1-May-82,6.76
6-May-82,31.313
11-May-82,34.861
16-May-82,24.986
21-May-82,33.367
26-May-82,28.451
1-Jun-82,48.977
6-Jun-82,82.446
11-Jun-82,39.241
16-Jun-82,45.281
21-Jun-82,25.782
26-Jun-82,82.027
1-Jul-82,40.334
6-Jul-82,35.179
11-Jul-82,65.001
16-Jul-82,79.522
21-Jul-82,42.942
26-Jul-82,25.353
1-Aug-82,56.953
6-Aug-82,55.059
11-Aug-82,33.07
16-Aug-82,65.924
21-Aug-82,54.208
26-Aug-82,69.918
1-Sep-82,90.694
6-Sep-82,107.499
11-Sep-82,16.585
16-Sep-82,36.155
21-Sep-82,48.055
26-Sep-82,37.087
1-Oct-82,24.242
6-Oct-82,42.926
11-Oct-82,24.091
16-Oct-82,17.497
21-Oct-82,37.623
26-Oct-82,24.648
1-Nov-82,5.553
6-Nov-82,26.881
11-Nov-82,8.399
16-Nov-82,15.348
21-Nov-82,6.012
26-Nov-82,6.063
1-Dec-82,1.811
6-Dec-82,3.269
11-Dec-82,1.038
16-Dec-82,3.946
21-Dec-82,1.21
26-Dec-82,1.314
1-Jan-83,1.019
6-Jan-83,0.846
11-Jan-83,0.586
16-Jan-83,0.563
21-Jan-83,0.686
26-Jan-83,2.241
1-Feb-83,1.266
6-Feb-83,1.371
11-Feb-83,1.552
16-Feb-83,1.423
21-Feb-83,1.768
26-Feb-83,1.162
1-Mar-83,2.655
6-Mar-83,3.002
11-Mar-83,1.599
16-Mar-83,1.444
21-Mar-83,1.414
26-Mar-83,1.426
1-Apr-83,2.644
6-Apr-83,1.985
11-Apr-83,2.269
16-Apr-83,2.21
21-Apr-83,2.322
26-Apr-83,14.766
1-May-83,17.59
6-May-83,44.782
11-May-83,3.17
16-May-83,26.809
21-May-83,30.962
26-May-83,58.443
1-Jun-83,11.979
6-Jun-83,93.182
11-Jun-83,22.086
16-Jun-83,13.911
21-Jun-83,86.71
26-Jun-83,55.987
1-Jul-83,25.514
6-Jul-83,58.309
11-Jul-83,55.466
16-Jul-83,79.985
21-Jul-83,34.929
26-Jul-83,56.188
1-Aug-83,58.011
6-Aug-83,87.461
11-Aug-83,60.743
16-Aug-83,74.185
21-Aug-83,43.756
26-Aug-83,70.479
1-Sep-83,37.256
6-Sep-83,57.918
11-Sep-83,41.874
16-Sep-83,28.807
21-Sep-83,41.35
26-Sep-83,91.539
1-Oct-83,43.495
6-Oct-83,120.449
11-Oct-83,92.584
16-Oct-83,75.959
21-Oct-83,26.451
26-Oct-83,52.717
1-Nov-83,13.868
6-Nov-83,35.615
11-Nov-83,32.062
16-Nov-83,15.827
21-Nov-83,7.462
26-Nov-83,3.313
1-Dec-83,1.949
6-Dec-83,1.677
11-Dec-83,1.757
16-Dec-83,1.674
21-Dec-83,2.025
26-Dec-83,3.385
1-Jan-84,1.819
6-Jan-84,0.916
11-Jan-84,0.781
16-Jan-84,0.941
21-Jan-84,1.93
26-Jan-84,2.132
1-Feb-84,1.052
6-Feb-84,1.382
11-Feb-84,2.132
16-Feb-84,2.115
21-Feb-84,2.952
26-Feb-84,1.044
1-Mar-84,1.797
6-Mar-84,2.082
11-Mar-84,2.111
16-Mar-84,7.633
21-Mar-84,8.247
26-Mar-84,20.368
1-Apr-84,4.401
6-Apr-84,6.651
11-Apr-84,4.977
16-Apr-84,20.894
21-Apr-84,46.6
26-Apr-84,48.694
1-May-84,37.384
6-May-84,49.401
11-May-84,27.586
16-May-84,45.172
21-May-84,41.967
26-May-84,53.13
1-Jun-84,60.442
6-Jun-84,115.457
11-Jun-84,54.05
16-Jun-84,49.511
21-Jun-84,56.526
26-Jun-84,56.917
1-Jul-84,57.412
6-Jul-84,37.837
11-Jul-84,25.169
16-Jul-84,29.023
21-Jul-84,43.892
26-Jul-84,43.516
1-Aug-84,26.009
6-Aug-84,70.826
11-Aug-84,69.698
16-Aug-84,89.795
21-Aug-84,45.092
26-Aug-84,100.229
1-Sep-84,62.683
6-Sep-84,49.95
11-Sep-84,41.95
16-Sep-84,32.699
21-Sep-84,38.327
26-Sep-84,62.233
1-Oct-84,46.657
6-Oct-84,44.376
11-Oct-84,64.04
16-Oct-84,29.014
21-Oct-84,8.552
26-Oct-84,7.82
1-Nov-84,35.724
6-Nov-84,6.418
11-Nov-84,6.568
16-Nov-84,4.273
21-Nov-84,3.988
26-Nov-84,11.729
1-Dec-84,2.25
6-Dec-84,4.311
11-Dec-84,1.336
16-Dec-84,5.035
21-Dec-84,2.234
26-Dec-84,1.603
1-Jan-85,1.037
6-Jan-85,0.747
11-Jan-85,0.627
16-Jan-85,0.604
21-Jan-85,1.715
26-Jan-85,1.287
1-Feb-85,1.42
6-Feb-85,2.672
11-Feb-85,3.596
16-Feb-85,2.077
21-Feb-85,2.593
26-Feb-85,5.166
1-Mar-85,16.947
6-Mar-85,4.013
11-Mar-85,2.841
16-Mar-85,2.287
21-Mar-85,9.152
26-Mar-85,27.855
1-Apr-85,3.431
6-Apr-85,3.805
11-Apr-85,10.76
16-Apr-85,48.721
21-Apr-85,36.711
26-Apr-85,76.203
1-May-85,10.179
6-May-85,38.271
11-May-85,56.277
16-May-85,49.686
21-May-85,19.359
26-May-85,42.067
1-Jun-85,53.704
6-Jun-85,24.949
11-Jun-85,65.654
16-Jun-85,90.504
21-Jun-85,39.851
26-Jun-85,21.98
1-Jul-85,46.195
6-Jul-85,64.365
11-Jul-85,49.498
16-Jul-85,44.919
21-Jul-85,35.09
26-Jul-85,37.673
1-Aug-85,56.646
6-Aug-85,60.925
11-Aug-85,29.895
16-Aug-85,38.498
21-Aug-85,29.033
26-Aug-85,30.293
1-Sep-85,62.027
6-Sep-85,72.716
11-Sep-85,72.295
16-Sep-85,43.103
21-Sep-85,64.422
26-Sep-85,27.957
1-Oct-85,38.252
6-Oct-85,26.547
11-Oct-85,45.243
16-Oct-85,26.986
21-Oct-85,26.774
26-Oct-85,23.812
1-Nov-85,8.264
6-Nov-85,29.752
11-Nov-85,18.747
16-Nov-85,7.935
21-Nov-85,21.522
26-Nov-85,23.216
1-Dec-85,2.886
6-Dec-85,1.354
11-Dec-85,1.037
16-Dec-85,3.012
21-Dec-85,1.672
26-Dec-85,1.205
1-Jan-86,0.945
6-Jan-86,0.766
11-Jan-86,0.877
16-Jan-86,1.377
21-Jan-86,0.75
26-Jan-86,1.082
1-Feb-86,1.065
6-Feb-86,1.22
11-Feb-86,1.179
16-Feb-86,1.818
21-Feb-86,2.621
26-Feb-86,1.011
1-Mar-86,1.593
6-Mar-86,1.678
11-Mar-86,2.716
16-Mar-86,3.421
21-Mar-86,2.054
26-Mar-86,8.128
1-Apr-86,4.086
6-Apr-86,14.897
11-Apr-86,23.065
16-Apr-86,10.524
21-Apr-86,26.146
26-Apr-86,5.552
1-May-86,22.925
6-May-86,51.366
11-May-86,29.171
16-May-86,63.869
21-May-86,38.771
26-May-86,30.58
1-Jun-86,34.95
6-Jun-86,34.948
11-Jun-86,35.852
16-Jun-86,57.07
21-Jun-86,47.925
26-Jun-86,16.23
1-Jul-86,39.82
6-Jul-86,28.913
11-Jul-86,69.95
16-Jul-86,74.271
21-Jul-86,53.472
26-Jul-86,58.617
1-Aug-86,56.607
6-Aug-86,78.485
11-Aug-86,76.282
16-Aug-86,88.51
21-Aug-86,54.005
26-Aug-86,62.719
1-Sep-86,61.206
6-Sep-86,103.625
11-Sep-86,40.5
16-Sep-86,26.771
21-Sep-86,41.83
26-Sep-86,72.491
1-Oct-86,61.643
6-Oct-86,23.729
11-Oct-86,46.649
16-Oct-86,52.585
21-Oct-86,60.43
26-Oct-86,42.771
1-Nov-86,4.418
6-Nov-86,8.202
11-Nov-86,15.769
16-Nov-86,18.2
21-Nov-86,4.333
26-Nov-86,5.033
1-Dec-86,12.084
6-Dec-86,1.876
11-Dec-86,1.054
16-Dec-86,1.267
21-Dec-86,1.245
26-Dec-86,1.451
1-Jan-87,0.892
6-Jan-87,0.749
11-Jan-87,1.482
16-Jan-87,0.566
21-Jan-87,0.945
26-Jan-87,1.002
1-Feb-87,1.159
6-Feb-87,1.326
11-Feb-87,1.341
16-Feb-87,1.369
21-Feb-87,1.625
26-Feb-87,3.487
1-Mar-87,5.51
6-Mar-87,3.424
11-Mar-87,1.152
16-Mar-87,1.576
21-Mar-87,1.771
26-Mar-87,8.403
1-Apr-87,6.672
6-Apr-87,3.008
11-Apr-87,9.151
16-Apr-87,9.722
21-Apr-87,9.067
26-Apr-87,6.376
1-May-87,22.564
6-May-87,30.989
11-May-87,19.275
16-May-87,9.603
21-May-87,10.196
26-May-87,39.673
1-Jun-87,52.29
6-Jun-87,56.106
11-Jun-87,41.579
16-Jun-87,89.49
21-Jun-87,27.638
26-Jun-87,17.814
1-Jul-87,74.506
6-Jul-87,47.285
11-Jul-87,34.022
16-Jul-87,64.178
21-Jul-87,20.619
26-Jul-87,63.977
1-Aug-87,34.556
6-Aug-87,17.449
11-Aug-87,65.064
16-Aug-87,79.488
21-Aug-87,90.306
26-Aug-87,33.637
1-Sep-87,46.995
6-Sep-87,64.12
11-Sep-87,72.371
16-Sep-87,53.182
21-Sep-87,42.214
26-Sep-87,31.654
1-Oct-87,36.995
6-Oct-87,29.635
11-Oct-87,31.61
16-Oct-87,10.552
21-Oct-87,13.659
26-Oct-87,24.836
1-Nov-87,29.812
6-Nov-87,31.833
11-Nov-87,30.701
16-Nov-87,24.758
21-Nov-87,13.505
26-Nov-87,28.864
1-Dec-87,1.362
6-Dec-87,1.28
11-Dec-87,1.168
16-Dec-87,1.006
21-Dec-87,1.064
26-Dec-87,1.129
1-Jan-88,0.79
6-Jan-88,0.61
11-Jan-88,0.746
16-Jan-88,0.482
21-Jan-88,0.773
26-Jan-88,3
1-Feb-88,8.486
6-Feb-88,4.12
11-Feb-88,4.595
16-Feb-88,5.207
21-Feb-88,4.323
26-Feb-88,4.595
1-Mar-88,7.035
6-Mar-88,3.864
11-Mar-88,4.937
16-Mar-88,3.781
21-Mar-88,9.42
26-Mar-88,4.94
1-Apr-88,5.653
6-Apr-88,15.123
11-Apr-88,16.172
16-Apr-88,18.94
21-Apr-88,23.536
26-Apr-88,28.066
1-May-88,42.453
6-May-88,33.678
11-May-88,54.062
16-May-88,17.559
21-May-88,35.717
26-May-88,53.68
1-Jun-88,68.607
6-Jun-88,55.524
11-Jun-88,78.288
16-Jun-88,45.872
21-Jun-88,14.966
26-Jun-88,34.025
1-Jul-88,29.428
6-Jul-88,25.982
11-Jul-88,85.099
16-Jul-88,46.741
21-Jul-88,37.006
26-Jul-88,53.024
1-Aug-88,30.788
6-Aug-88,34.121
11-Aug-88,27.251
16-Aug-88,27.096
21-Aug-88,51.771
26-Aug-88,69.693
1-Sep-88,14.796
6-Sep-88,44.236
11-Sep-88,43.041
16-Sep-88,92.273
21-Sep-88,43.766
26-Sep-88,79.481
1-Oct-88,59.099
6-Oct-88,65.825
11-Oct-88,56.589
16-Oct-88,58.783
21-Oct-88,28.101
26-Oct-88,25.598
1-Nov-88,4.653
6-Nov-88,15.159
11-Nov-88,2.417
16-Nov-88,4.937
21-Nov-88,2.594
26-Nov-88,5.162
1-Dec-88,1.163
6-Dec-88,1.655
11-Dec-88,0.902
16-Dec-88,1.042
21-Dec-88,1.074
26-Dec-88,1.167
1-Jan-89,1.063
6-Jan-89,0.926
11-Jan-89,0.889
16-Jan-89,0.645
21-Jan-89,0.831
26-Jan-89,2.523
1-Feb-89,1.055
6-Feb-89,1.186
11-Feb-89,1.42
16-Feb-89,1.279
21-Feb-89,2.049
26-Feb-89,1.041
1-Mar-89,8.801
6-Mar-89,3.319
11-Mar-89,3.27
16-Mar-89,23.511
21-Mar-89,2.234
26-Mar-89,16.676
1-Apr-89,5.633
6-Apr-89,11.376
11-Apr-89,9.383
16-Apr-89,4.838
21-Apr-89,8.073
26-Apr-89,16.622
1-May-89,22.52
6-May-89,17.315
11-May-89,40.343
16-May-89,50.513
21-May-89,59.838
26-May-89,69.767
1-Jun-89,28.391
6-Jun-89,43.687
11-Jun-89,27.177
16-Jun-89,23.72
21-Jun-89,31.566
26-Jun-89,44.681
1-Jul-89,75.351
6-Jul-89,56.554
11-Jul-89,70.95
16-Jul-89,42.948
21-Jul-89,99.093
26-Jul-89,30.647
1-Aug-89,51.808
6-Aug-89,53.005
11-Aug-89,72.732
16-Aug-89,60.952
21-Aug-89,62.476
26-Aug-89,59.329
1-Sep-89,25.309
6-Sep-89,57.879
11-Sep-89,86.525
16-Sep-89,58
21-Sep-89,28.581
26-Sep-89,45.246
1-Oct-89,57.098
6-Oct-89,30.292
11-Oct-89,62.791
16-Oct-89,54.251
21-Oct-89,6.871
26-Oct-89,16.718
1-Nov-89,14.668
6-Nov-89,19.565
11-Nov-89,4.75
16-Nov-89,4.511
21-Nov-89,3.108
26-Nov-89,3.337
1-Dec-89,1.2
6-Dec-89,1.055
11-Dec-89,0.93
16-Dec-89,1.061
21-Dec-89,1.215
26-Dec-89,1.234
1-Jan-90,1.206
6-Jan-90,1.018
11-Jan-90,1.248
16-Jan-90,1.065
21-Jan-90,0.694
26-Jan-90,1.101
1-Feb-90,1.597
6-Feb-90,1.563
11-Feb-90,1.641
16-Feb-90,2.208
21-Feb-90,3.155
26-Feb-90,1.491
1-Mar-90,7.087
6-Mar-90,11.958
11-Mar-90,12.97
16-Mar-90,7.098
21-Mar-90,5.648
26-Mar-90,17.408
1-Apr-90,7.041
6-Apr-90,11.09
11-Apr-90,8.465
16-Apr-90,8.621
21-Apr-90,10.572
26-Apr-90,28.47
1-May-90,16.777
6-May-90,21.992
11-May-90,17.622
16-May-90,27.407
21-May-90,51.746
26-May-90,39.133
1-Jun-90,39.246
6-Jun-90,75.754
11-Jun-90,73.627
16-Jun-90,38.468
21-Jun-90,49.952
26-Jun-90,35.916
1-Jul-90,43.067
6-Jul-90,23.265
11-Jul-90,40.347
16-Jul-90,50.238
21-Jul-90,54.079
26-Jul-90,80.151
1-Aug-90,48.603
6-Aug-90,47.769
11-Aug-90,83.515
16-Aug-90,68.721
21-Aug-90,44.296
26-Aug-90,84.799
1-Sep-90,71.067
6-Sep-90,57.686
11-Sep-90,25.105
16-Sep-90,57.884
21-Sep-90,43.701
26-Sep-90,57.506
1-Oct-90,87.714
6-Oct-90,34.218
11-Oct-90,15.376
16-Oct-90,70.255
21-Oct-90,35.397
26-Oct-90,31.32
1-Nov-90,7.185
6-Nov-90,30.528
11-Nov-90,35.763
16-Nov-90,2.796
21-Nov-90,2.688
26-Nov-90,2.612
1-Dec-90,1.195
6-Dec-90,1.431
11-Dec-90,0.988
16-Dec-90,1.007
21-Dec-90,1.008
26-Dec-90,1.251
1-Jan-91,1.213
6-Jan-91,0.725
11-Jan-91,0.592
16-Jan-91,0.64
21-Jan-91,3.042
26-Jan-91,1.26
1-Feb-91,1.119
6-Feb-91,2.531
11-Feb-91,1.442
16-Feb-91,1.43
21-Feb-91,1.749
26-Feb-91,2.117
1-Mar-91,4.927
6-Mar-91,2.112
11-Mar-91,2.442
16-Mar-91,3.034
21-Mar-91,2.576
26-Mar-91,4.657
1-Apr-91,5.916
6-Apr-91,4.61
11-Apr-91,2.018
16-Apr-91,3.74
21-Apr-91,25.289
26-Apr-91,7.412
1-May-91,33.337
6-May-91,10.217
11-May-91,10.864
16-May-91,29.507
21-May-91,30.308
26-May-91,40.415
1-Jun-91,39.962
6-Jun-91,44.222
11-Jun-91,43.317
16-Jun-91,42.935
21-Jun-91,35.998
26-Jun-91,31.806
1-Jul-91,49.261
6-Jul-91,23.575
11-Jul-91,41.547
16-Jul-91,33.699
21-Jul-91,39.72
26-Jul-91,85.56
1-Aug-91,50.807
6-Aug-91,41.746
11-Aug-91,60.593
16-Aug-91,68.201
21-Aug-91,40.676
26-Aug-91,79.813
1-Sep-91,67.482
6-Sep-91,43.381
11-Sep-91,68.878
16-Sep-91,58.337
21-Sep-91,45.228
26-Sep-91,57.451
1-Oct-91,70.239
6-Oct-91,52.801
11-Oct-91,18.309
16-Oct-91,36.448
21-Oct-91,40.624
26-Oct-91,8.267
1-Nov-91,2.567
6-Nov-91,12.425
11-Nov-91,2.736
16-Nov-91,2.848
21-Nov-91,3.231
26-Nov-91,3.399
1-Dec-91,1.31
6-Dec-91,1.14
11-Dec-91,0.983
16-Dec-91,1.134
21-Dec-91,1.158
26-Dec-91,2.479
1-Jan-92,2.456
6-Jan-92,1.315
11-Jan-92,0.771
16-Jan-92,0.778
21-Jan-92,0.816
26-Jan-92,1.609
1-Feb-92,1.983
6-Feb-92,4.002
11-Feb-92,1.505
16-Feb-92,1.402
21-Feb-92,2.833
26-Feb-92,1.642
1-Mar-92,1.369
6-Mar-92,1.425
11-Mar-92,1.528
16-Mar-92,1.719
21-Mar-92,1.799
26-Mar-92,2.055
1-Apr-92,1.87
6-Apr-92,2.375
11-Apr-92,11.449
16-Apr-92,10.209
21-Apr-92,13.98
26-Apr-92,7.795
1-May-92,32.475
6-May-92,22.358
11-May-92,24.693
16-May-92,30.052
21-May-92,33.915
26-May-92,43.155
1-Jun-92,40.638
6-Jun-92,57.067
11-Jun-92,50.116
16-Jun-92,49.697
21-Jun-92,58.136
26-Jun-92,60.905
1-Jul-92,22.811
6-Jul-92,61.395
11-Jul-92,59.13
16-Jul-92,24.286
21-Jul-92,63.41
26-Jul-92,88.906
1-Aug-92,46.226
6-Aug-92,60.166
11-Aug-92,76.999
16-Aug-92,83.109
21-Aug-92,54.791
26-Aug-92,103.728
1-Sep-92,37.239
6-Sep-92,50.733
11-Sep-92,31.188
16-Sep-92,70.846
21-Sep-92,56.202
26-Sep-92,43.346
1-Oct-92,48.341
6-Oct-92,48.845
11-Oct-92,25.875
16-Oct-92,17.383
21-Oct-92,29.918
26-Oct-92,68.698
1-Nov-92,3.999
6-Nov-92,2.57
11-Nov-92,3.066
16-Nov-92,2.477
21-Nov-92,2.172
26-Nov-92,2.44
1-Dec-92,1.923
6-Dec-92,2.153
11-Dec-92,1.532
16-Dec-92,1.495
21-Dec-92,2.286
26-Dec-92,2.688
1-Jan-93,1.138
6-Jan-93,1.022
11-Jan-93,0.752
16-Jan-93,0.784
21-Jan-93,1.302
26-Jan-93,1.522
1-Feb-93,1.226
6-Feb-93,1.331
11-Feb-93,1.276
16-Feb-93,1.444
21-Feb-93,1.733
26-Feb-93,1.661
1-Mar-93,4.326
6-Mar-93,5.45
11-Mar-93,10.636
16-Mar-93,40.852
21-Mar-93,18.866
26-Mar-93,6.583
1-Apr-93,2.707
6-Apr-93,10.507
11-Apr-93,12.529
16-Apr-93,14.255
21-Apr-93,12.923
26-Apr-93,3.416
1-May-93,4.399
6-May-93,13.316
11-May-93,27.089
16-May-93,41.787
21-May-93,32.771
26-May-93,22.004
1-Jun-93,21.375
6-Jun-93,37.409
11-Jun-93,34.445
16-Jun-93,31.67
21-Jun-93,65.035
26-Jun-93,54.855
1-Jul-93,27.757
6-Jul-93,38.593
11-Jul-93,76.406
16-Jul-93,29.932
21-Jul-93,22.169
26-Jul-93,93.218
1-Aug-93,60.705
6-Aug-93,33.53
11-Aug-93,69.45
16-Aug-93,42.764
21-Aug-93,49.813
26-Aug-93,62.778
1-Sep-93,54.39
6-Sep-93,90.496
11-Sep-93,44.943
16-Sep-93,61.824
21-Sep-93,59.673
26-Sep-93,34.19
1-Oct-93,67.479
6-Oct-93,24.329
11-Oct-93,22.862
16-Oct-93,56.325
21-Oct-93,54.374
26-Oct-93,27.174
1-Nov-93,1.944
6-Nov-93,2.666
11-Nov-93,3.307
16-Nov-93,9.427
21-Nov-93,8.862
26-Nov-93,12.659
1-Dec-93,9.778
6-Dec-93,5.455
11-Dec-93,1.723
16-Dec-93,1.957
21-Dec-93,2.206
26-Dec-93,1.505
1-Jan-94,1.082
6-Jan-94,0.843
11-Jan-94,0.782
16-Jan-94,0.896
21-Jan-94,0.985
26-Jan-94,1.13
1-Feb-94,1.438
6-Feb-94,5.372
11-Feb-94,4.699
16-Feb-94,1.988
21-Feb-94,1.719
26-Feb-94,1.081
1-Mar-94,3.624
6-Mar-94,7.664
11-Mar-94,31.694
16-Mar-94,21.078
21-Mar-94,26.011
26-Mar-94,15.455
1-Apr-94,4.452
6-Apr-94,12.594
11-Apr-94,12.603
16-Apr-94,12.349
21-Apr-94,14.885
26-Apr-94,3.641
1-May-94,19.314
6-May-94,41.584
11-May-94,31.313
16-May-94,71.182
21-May-94,33.757
26-May-94,41.445
1-Jun-94,35.792
6-Jun-94,44.543
11-Jun-94,26.775
16-Jun-94,47.564
21-Jun-94,38.165
26-Jun-94,63.767
1-Jul-94,73.63
6-Jul-94,76.111
11-Jul-94,43.581
16-Jul-94,61.643
21-Jul-94,27.01
26-Jul-94,66.93
1-Aug-94,73.43
6-Aug-94,28.5
11-Aug-94,14.802
16-Aug-94,61.321
21-Aug-94,96.266
26-Aug-94,116.866
1-Sep-94,85.306
6-Sep-94,40.54
11-Sep-94,69.648
16-Sep-94,84.414
21-Sep-94,41.615
26-Sep-94,45.775
1-Oct-94,36.824
6-Oct-94,16.217
11-Oct-94,38.524
16-Oct-94,42.283
21-Oct-94,6.423
26-Oct-94,11.626
1-Nov-94,2.392
6-Nov-94,2.699
11-Nov-94,2.086
16-Nov-94,2.911
21-Nov-94,4.461
26-Nov-94,7.61
1-Dec-94,5.15
6-Dec-94,3.575
11-Dec-94,3.345
16-Dec-94,1.185
21-Dec-94,1.168
26-Dec-94,1.212
1-Jan-95,1.516
6-Jan-95,0.909
11-Jan-95,1.087
16-Jan-95,1.516
21-Jan-95,1.947
26-Jan-95,2.318
1-Feb-95,1.276
6-Feb-95,1.425
11-Feb-95,1.819
16-Feb-95,4.188
21-Feb-95,2.52
26-Feb-95,2.355
1-Mar-95,4.817
6-Mar-95,2.26
11-Mar-95,1.632
16-Mar-95,9.551
21-Mar-95,15.354
26-Mar-95,11.489
1-Apr-95,10.058
6-Apr-95,4.005
11-Apr-95,4.207
16-Apr-95,3.587
21-Apr-95,6.837
26-Apr-95,10.301
1-May-95,21.26
6-May-95,27.416
11-May-95,47.957
16-May-95,24.072
21-May-95,29.246
26-May-95,60.42
1-Jun-95,40.891
6-Jun-95,36.82
11-Jun-95,43.354
16-Jun-95,42.906
21-Jun-95,41.869
26-Jun-95,38.73
1-Jul-95,59.624
6-Jul-95,51.486
11-Jul-95,38.932
16-Jul-95,48.608
21-Jul-95,43.651
26-Jul-95,114.299
1-Aug-95,36.081
6-Aug-95,61.393
11-Aug-95,32.992
16-Aug-95,51.8
21-Aug-95,78.388
26-Aug-95,61.478
1-Sep-95,69.52
6-Sep-95,51.356
11-Sep-95,72.339
16-Sep-95,62.043
21-Sep-95,65.523
26-Sep-95,34.901
1-Oct-95,39.176
6-Oct-95,58.641
11-Oct-95,47.924
16-Oct-95,21.042
21-Oct-95,8.27
26-Oct-95,49.07
1-Nov-95,18.211
6-Nov-95,8.847
11-Nov-95,5.494
16-Nov-95,8.297
21-Nov-95,4.397
26-Nov-95,10.297
1-Dec-95,3.051
6-Dec-95,2.412
11-Dec-95,3.467
16-Dec-95,7.717
21-Dec-95,1.462
26-Dec-95,1.507
1-Jan-96,0.908
6-Jan-96,0.78
11-Jan-96,0.708
16-Jan-96,0.688
21-Jan-96,2.668
26-Jan-96,1.857
1-Feb-96,1.163
6-Feb-96,1.307
11-Feb-96,2.261
16-Feb-96,10.06
21-Feb-96,1.808
26-Feb-96,1.277
1-Mar-96,1.839
6-Mar-96,3.201
11-Mar-96,4.711
16-Mar-96,1.7
21-Mar-96,6.798
26-Mar-96,4.249
1-Apr-96,20.175
6-Apr-96,17.944
11-Apr-96,33.063
16-Apr-96,21.085
21-Apr-96,16.639
26-Apr-96,27.591
1-May-96,28.075
6-May-96,32
11-May-96,55.688
16-May-96,42.817
21-May-96,24.222
26-May-96,43.615
1-Jun-96,36.102
6-Jun-96,49.794
11-Jun-96,47.717
16-Jun-96,53.556
21-Jun-96,34.829
26-Jun-96,22.901
1-Jul-96,65.575
6-Jul-96,42.099
11-Jul-96,53.772
16-Jul-96,33.599
21-Jul-96,69.325
26-Jul-96,73.564
1-Aug-96,47.154
6-Aug-96,24.611
11-Aug-96,33.277
16-Aug-96,42.997
21-Aug-96,63.72
26-Aug-96,48.592
1-Sep-96,58.479
6-Sep-96,71.49
11-Sep-96,87.851
16-Sep-96,56.58
21-Sep-96,51.141
26-Sep-96,87.443
1-Oct-96,33.579
6-Oct-96,26.877
11-Oct-96,28.868
16-Oct-96,37.442
21-Oct-96,49.908
26-Oct-96,36.931
1-Nov-96,75.349
6-Nov-96,9.36
11-Nov-96,11.585
16-Nov-96,20.232
21-Nov-96,11.728
26-Nov-96,18.861
1-Dec-96,6.904
6-Dec-96,4.199
11-Dec-96,2.136
16-Dec-96,3.639
21-Dec-96,1.071
26-Dec-96,0.968
1-Jan-97,0.909
6-Jan-97,0.719
11-Jan-97,0.62
16-Jan-97,0.605
21-Jan-97,0.784
26-Jan-97,1.588
1-Feb-97,3.619
6-Feb-97,9.034
11-Feb-97,6.075
16-Feb-97,11.085
21-Feb-97,5.408
26-Feb-97,1.407
1-Mar-97,4.42
6-Mar-97,3.073
11-Mar-97,4.809
16-Mar-97,6.554
21-Mar-97,2.617
26-Mar-97,6.894
1-Apr-97,12.396
6-Apr-97,27.908
11-Apr-97,14.138
16-Apr-97,3.045
21-Apr-97,23.019
26-Apr-97,13.71
1-May-97,15.216
6-May-97,13.562
11-May-97,17.419
16-May-97,34.977
21-May-97,57.87
26-May-97,38.703
1-Jun-97,25.469
6-Jun-97,14.306
11-Jun-97,9.712
16-Jun-97,24.938
21-Jun-97,40.028
26-Jun-97,57.169
1-Jul-97,26.513
6-Jul-97,38.3
11-Jul-97,92.041
16-Jul-97,45.952
21-Jul-97,89.556
26-Jul-97,69.714
1-Aug-97,67.269
6-Aug-97,33.498
11-Aug-97,30.061
16-Aug-97,67.81
21-Aug-97,58.19
26-Aug-97,67.249
1-Sep-97,31.027
6-Sep-97,29.978
11-Sep-97,27.44
16-Sep-97,59.304
21-Sep-97,99.55
26-Sep-97,49.943
1-Oct-97,34.216
6-Oct-97,18.372
11-Oct-97,44.704
16-Oct-97,27.088
21-Oct-97,14.234
26-Oct-97,23.127
1-Nov-97,14.837
6-Nov-97,1.853
11-Nov-97,4.141
16-Nov-97,2.462
21-Nov-97,4.848
26-Nov-97,2.331
1-Dec-97,1.224
6-Dec-97,1.163
11-Dec-97,0.942
16-Dec-97,0.928
21-Dec-97,1.248
26-Dec-97,1.041
1-Jan-98,1.282
6-Jan-98,1.216
11-Jan-98,0.818
16-Jan-98,0.858
21-Jan-98,0.906
26-Jan-98,1.496
1-Feb-98,2.197
6-Feb-98,4.426
11-Feb-98,2.834
16-Feb-98,1.859
21-Feb-98,4.608
26-Feb-98,3.266
1-Mar-98,2.67
6-Mar-98,1.621
11-Mar-98,1.405
16-Mar-98,1.185
21-Mar-98,1.287
26-Mar-98,4.478
1-Apr-98,5.734
6-Apr-98,3.814
11-Apr-98,5.011
16-Apr-98,38.186
21-Apr-98,12.681
26-Apr-98,4.691
1-May-98,16.777
6-May-98,11.694
11-May-98,19.78
16-May-98,37.694
21-May-98,53.141
26-May-98,50.079
1-Jun-98,20.78
6-Jun-98,45.278
11-Jun-98,29.73
16-Jun-98,25.172
21-Jun-98,48.55
26-Jun-98,99.065
1-Jul-98,64.562
6-Jul-98,37.296
11-Jul-98,30.504
16-Jul-98,16.764
21-Jul-98,28.763
26-Jul-98,66.315
1-Aug-98,55.619
6-Aug-98,99.759
11-Aug-98,41.442
16-Aug-98,97.193
21-Aug-98,41.231
26-Aug-98,46.846
1-Sep-98,33.808
6-Sep-98,31.616
11-Sep-98,56.399
16-Sep-98,99.597
21-Sep-98,69.707
26-Sep-98,84.975
1-Oct-98,16.242
6-Oct-98,44.756
11-Oct-98,36.306
16-Oct-98,24.82
21-Oct-98,16.415
26-Oct-98,17.546
1-Nov-98,15.132
6-Nov-98,20.105
11-Nov-98,35.859
16-Nov-98,39.637
21-Nov-98,22.804
26-Nov-98,30.862
1-Dec-98,6.65
6-Dec-98,7.203
11-Dec-98,7.958
16-Dec-98,1.087
21-Dec-98,3.675
26-Dec-98,1.575
1-Jan-99,1.837
6-Jan-99,2.151
11-Jan-99,1.126
16-Jan-99,0.764
21-Jan-99,1.18
26-Jan-99,3.988
1-Feb-99,3.531
6-Feb-99,3.682
11-Feb-99,2.226
16-Feb-99,1.398
21-Feb-99,1.891
26-Feb-99,1.475
1-Mar-99,4.569
6-Mar-99,5.028
11-Mar-99,6.712
16-Mar-99,3.713
21-Mar-99,9.212
26-Mar-99,32.119
1-Apr-99,24.72
6-Apr-99,37.413
11-Apr-99,61.516
16-Apr-99,32.533
21-Apr-99,24.648
26-Apr-99,33.579
1-May-99,58.663
6-May-99,34.664
11-May-99,68.051
16-May-99,69.189
21-May-99,40.386
26-May-99,73.183
1-Jun-99,57.857
6-Jun-99,54.366
11-Jun-99,42.56
16-Jun-99,66.207
21-Jun-99,11.753
26-Jun-99,61.375
1-Jul-99,44.959
6-Jul-99,24.639
11-Jul-99,30.674
16-Jul-99,20.95
21-Jul-99,81.422
26-Jul-99,112.121
1-Aug-99,25.715
6-Aug-99,21.924
11-Aug-99,18.027
16-Aug-99,42.584
21-Aug-99,40.655
26-Aug-99,81.851
1-Sep-99,53.033
6-Sep-99,58.928
11-Sep-99,37.884
16-Sep-99,32.615
21-Sep-99,68.635
26-Sep-99,51.503
1-Oct-99,25.936
6-Oct-99,23.817
11-Oct-99,44.179
16-Oct-99,30.767
21-Oct-99,44.011
26-Oct-99,58.314
1-Nov-99,57.246
6-Nov-99,10.238
11-Nov-99,16.375
16-Nov-99,5.43
21-Nov-99,14.354
26-Nov-99,5.708
1-Dec-99,10.128
6-Dec-99,6.098
11-Dec-99,6.643
16-Dec-99,1.436
21-Dec-99,1.04
26-Dec-99,1.18
1-Jan-00,2.437
6-Jan-00,4.075
11-Jan-00,4.524
16-Jan-00,2.599
21-Jan-00,2.552
26-Jan-00,4.466
1-Feb-00,1.059
6-Feb-00,2.078
11-Feb-00,3.251
16-Feb-00,4.559
21-Feb-00,9.759
26-Feb-00,1.712
1-Mar-00,6.17
6-Mar-00,9.441
11-Mar-00,18.473
16-Mar-00,5.615
21-Mar-00,3.267
26-Mar-00,16.992
1-Apr-00,14.285
6-Apr-00,24.231
11-Apr-00,56.659
16-Apr-00,32.137
21-Apr-00,34.762
26-Apr-00,33.213
1-May-00,37.732
6-May-00,30.491
11-May-00,75.061
16-May-00,57.141
21-May-00,41.974
26-May-00,68.23